QPF
0.02 0.02 0.03 0.04 0.06 0.06 0.05 0.06 0.07 0.08 0.09 0.08 0.07 0.07 0.07 0.06 0.05 0.04 0.04 0.05 0.04 0.03 0.02 0.02 0.02 0.02 0.03 0.04 0.04 0.02 0.02 0.01 0.03 0.04 0.04 0.03 0.03 0.04 0.03 0.02 0.01 0.04 0.08
0.01 0.01 0.01 0.03 0.04 0.05 0.05 0.06 0.06 0.06 0.07 0.06 0.07 0.08 0.07 0.06 0.05 0.05 0.05 0.04 0.02 0.03 0.04 0.04 0.02 0.02 0.02 0.03 0.04 0.03 0.03 0.03 0.02 0.03 0.03 0.03 0.02 0.03 0.03 0.02 0.01 0.02 0.04
0.01 0.02 0.01 0.01 0.02 0.03 0.05 0.06 0.06 0.06 0.07 0.07 0.07 0.07 0.08 0.07 0.05 0.04 0.03 0.03 0.02 0.01 0.02 0.03 0.04 0.03 0.02 0.02 0.03 0.04 0.05 0.04 0.03 0.02 0.02 0.02 0.02 0.02 0.03 0.02 0.01 0.01 0.01
0.01 0.01 0.01 0.01 0.01 0.01 0.02 0.03 0.04 0.05 0.06 0.07 0.07 0.08 0.08 0.09 0.08 0.06 0.05 0.04 0.03 0.02 0.02 0.03 0.03 0.04 0.03 0.02 0.03 0.03 0.03 0.03 0.02 0.02 0.01 0.01 0.02 0.01 0.02 0.02 0.02 0.01 0.01
0.01 0.01 0.01 0.01 0.01 0.01 0.02 0.03 0.03 0.03 0.04 0.05 0.06 0.07 0.08 0.09 0.08 0.08 0.06 0.05 0.05 0.04 0.04 0.04 0.03 0.04 0.04 0.03 0.03 0.02 0.02 0.02 0.01 0.01 0.01 0.01 0.01 0.00 0.01 0.02 0.02 0.02 0.01
0.01 0.01 0.01 0.00 0.01 0.01 0.02 0.02 0.02 0.03 0.03 0.04 0.05 0.06 0.07 0.08 0.09 0.09 0.08 0.06 0.05 0.05 0.06 0.05 0.04 0.04 0.04 0.03 0.03 0.02 0.02 0.02 0.01 0.01 0.00 0.00 0.00 0.00 0.01 0.01 0.02 0.02 0.02
0.01 0.00 0.01 0.01 0.00 0.01 0.02 0.02 0.01 0.01 0.02 0.03 0.04 0.06 0.08 0.08 0.08 0.08 0.08 0.07 0.06 0.06 0.06 0.05 0.04 0.03 0.04 0.03 0.02 0.02 0.02 0.03 0.03 0.02 0.01 0.00 0.00 0.01 0.01 0.01 0.01 0.01 0.02
0.01 0.00 0.01 0.01 0.01 0.02 0.02 0.01 0.01 0.01 0.02 0.02 0.04 0.07 0.07 0.07 0.08 0.06 0.07 0.08 0.07 0.06 0.05 0.05 0.05 0.05 0.04 0.03 0.03 0.02 0.01 0.01 0.03 0.03 0.02 0.01 0.01 0.01 0.01 0.01 0.01 0.01 0.01
0.01 0.00 0.01 0.01 0.02 0.02 0.02 0.02 0.02 0.01 0.01 0.01 0.01 0.02 0.03 0.04 0.05 0.05 0.07 0.06 0.06 0.05 0.06 0.06 0.06 0.06 0.06 0.05 0.04 0.02 0.01 0.01 0.02 0.02 0.02 0.02 0.02 0.01 0.01 0.01 0.01 0.01 0.00
0.01 0.01 0.01 0.01 0.02 0.02 0.03 0.03 0.03 0.02 0.02 0.01 0.00 0.00 0.01 0.02 0.03 0.05 0.06 0.06 0.05 0.04 0.05 0.06 0.06 0.06 0.06 0.07 0.04 0.03 0.01 0.01 0.01 0.01 0.02 0.02 0.03 0.04 0.03 0.01 0.01 0.01 0.01
0.01 0.01 0.01 0.01 0.01 0.02 0.02 0.02 0.02 0.01 0.01 0.01 0.00 0.00 0.01 0.02 0.03 0.04 0.05 0.06 0.05 0.05 0.05 0.05 0.05 0.05 0.06 0.07 0.06 0.03 0.02 0.02 0.02 0.01 0.02 0.02 0.02 0.03 0.03 0.03 0.02 0.02 0.01
0.01 0.01 0.01 0.01 0.01 0.01 0.01 0.02 0.02 0.01 0.01 0.00 0.00 0.00 0.01 0.02 0.02 0.03 0.04 0.04 0.05 0.04 0.04 0.04 0.04 0.04 0.05 0.06 0.07 0.06 0.05 0.04 0.03 0.02 0.01 0.01 0.01 0.02 0.03 0.03 0.04 0.03 0.02
0.02 0.02 0.02 0.02 0.02 0.01 0.01 0.01 0.01 0.01 0.01 0.00 0.00 0.00 0.00 0.01 0.02 0.02 0.02 0.03 0.04 0.04 0.04 0.04 0.05 0.05 0.05 0.04 0.05 0.05 0.06 0.06 0.04 0.03 0.02 0.02 0.02 0.03 0.03 0.04 0.04 0.05 0.04
0.02 0.02 0.02 0.02 0.01 0.01 0.01 0.01 0.01 0.01 0.01 0.01 0.01 0.01 0.01 0.01 0.01 0.01 0.02 0.02 0.02 0.03 0.04 0.05 0.05 0.05 0.05 0.04 0.04 0.05 0.05 0.05 0.05 0.04 0.03 0.02 0.02 0.02 0.02 0.02 0.02 0.02 0.03
0.03 0.03 0.02 0.01 0.00 0.00 0.00 0.00 0.00 0.00 0.00 0.00 0.00 0.00 0.01 0.01 0.01 0.01 0.01 0.01 0.02 0.03 0.04 0.04 0.05 0.05 0.06 0.05 0.04 0.05 0.06 0.06 0.06 0.04 0.03 0.02 0.02 0.01 0.01 0.01 0.01 0.02 0.01
0.03 0.01 0.00 0.00 0.00 0.00 0.00 0.00 0.00 0.00 0.00 0.00 0.00 0.01 0.01 0.01 0.01 0.01 0.01 0.02 0.02 0.04 0.04 0.04 0.04 0.05 0.05 0.06 0.06 0.06 0.06 0.07 0.07 0.06 0.05 0.04 0.02 0.02 0.02 0.01 0.01 0.01 0.02
0.02 0.01 0.00 0.00 0.00 0.00 0.00 0.00 0.00 0.00 0.00 0.00 0.00 0.00 0.01 0.01 0.01 0.01 0.01 0.01 0.02 0.03 0.03 0.03 0.03 0.04 0.05 0.05 0.06 0.07 0.07 0.07 0.07 0.07 0.06 0.06 0.04 0.03 0.02 0.02 0.01 0.01 0.01
0.00 0.01 0.01 0.00 0.00 0.00 0.00 0.00 0.00 0.00 0.00 0.00 0.00 0.00 0.00 0.00 0.00 0.00 0.00 0.01 0.01 0.01 0.03 0.03 0.03 0.03 0.04 0.04 0.05 0.06 0.06 0.07 0.07 0.07 0.06 0.06 0.05 0.05 0.05 0.04 0.03 0.02 0.02
0.00 0.00 0.01 0.00 0.00 0.00 0.00 0.00 0.00 0.00 0.00 0.00 0.00 0.00 0.00 0.00 0.00 0.00 0.00 0.00 0.00 0.00 0.01 0.02 0.03 0.03 0.03 0.04 0.04 0.04 0.06 0.06 0.06 0.06 0.05 0.05 0.05 0.05 0.05 0.05 0.04 0.04 0.04
0.01 0.01 0.01 0.00 0.00 0.00 0.00 0.00 0.00 0.00 0.00 0.00 0.00 0.00 0.00 0.00 0.00 0.00 0.00 0.00 0.00 0.00 0.01 0.01 0.02 0.03 0.03 0.03 0.03 0.04 0.04 0.06 0.06 0.06 0.07 0.07 0.06 0.05 0.04 0.04 0.03 0.03 0.03
0.01 0.01 0.00 0.00 0.00 0.01 0.00 0.00 0.00 0.00 0.00 0.00 0.00 0.00 0.00 0.00 0.00 0.00 0.00 0.00 0.00 0.01 0.01 0.01 0.01 0.02 0.02 0.03 0.03 0.03 0.04 0.05 0.06 0.07 0.09 0.09 0.08 0.07 0.05 0.03 0.03 0.02 0.02
0.01 0.01 0.00 0.00 0.00 0.00 0.00 0.00 0.00 0.00 0.00 0.00 0.00 0.00 0.00 0.00 0.00 0.00 0.00 0.00 0.01 0.01 0.01 0.01 0.00 0.01 0.01 0.01 0.02 0.03 0.03 0.03 0.04 0.06 0.07 0.08 0.09 0.10 0.07 0.05 0.03 0.03 0.02
0.01 0.01 0.01 0.01 0.00 0.00 0.00 0.00 0.00 0.00 0.00 0.00 0.00 0.00 0.00 0.00 0.00 0.00 0.00 0.00 0.00 0.00 0.00 0.00 0.00 0.00 0.00 0.00 0.00 0.01 0.02 0.02 0.03 0.04 0.05 0.06 0.07 0.08 0.08 0.08 0.06 0.05 0.04
0.01 0.01 0.01 0.01 0.01 0.00 0.00 0.00 0.00 0.01 0.01 0.01 0.01 0.01 0.01 0.01 0.00 0.00 0.00 0.00 0.00 0.00 0.00 0.00 0.00 0.00 0.00 0.00 0.00 0.00 0.00 0.01 0.01 0.02 0.03 0.04 0.05 0.07 0.08 0.08 0.07 0.07 0.07
0.01 0.02 0.01 0.01 0.01 0.01 0.01 0.00 0.00 0.01 0.01 0.01 0.01 0.01 0.01 0.01 0.01 0.00 0.00 0.00 0.00 0.00 0.00 0.00 0.00 0.00 0.00 0.00 0.00 0.00 0.01 0.01 0.01 0.01 0.02 0.02 0.03 0.04 0.05 0.06 0.06 0.07 0.07
0.01 0.02 0.02 0.01 0.01 0.01 0.01 0.01 0.01 0.01 0.01 0.01 0.01 0.01 0.00 0.00 0.00 0.00 0.00 0.00 0.00 0.00 0.00 0.00 0.00 0.00 0.00 0.01 0.01 0.01 0.01 0.01 0.01 0.01 0.01 0.02 0.02 0.03 0.03 0.04 0.05 0.06 0.06
MSLP
1012.01 1012.53 1013.06 1013.58 1014.06 1014.49 1014.86 1015.19 1015.50 1015.82 1016.17 1016.55 1016.95 1017.38 1017.80 1018.20 1018.55 1018.86 1019.13 1019.36 1019.57 1019.77 1019.97 1020.19 1020.41 1020.63 1020.84 1021.02 1021.16 1021.25 1021.28 1021.27 1021.21 1021.11 1020.96 1020.78 1020.56 1020.31 1020.04 1019.77 1019.50 1019.26 1019.06
1011.92 1012.41 1012.92 1013.43 1013.90 1014.33 1014.71 1015.06 1015.39 1015.71 1016.06 1016.43 1016.83 1017.24 1017.65 1018.04 1018.40 1018.72 1019.01 1019.26 1019.48 1019.69 1019.90 1020.10 1020.30 1020.50 1020.68 1020.84 1020.98 1021.09 1021.16 1021.19 1021.18 1021.13 1021.04 1020.90 1020.71 1020.48 1020.21 1019.92 1019.62 1019.33 1019.08
1011.86 1012.33 1012.83 1013.31 1013.77 1014.19 1014.57 1014.93 1015.26 1015.60 1015.94 1016.31 1016.69 1017.08 1017.47 1017.85 1018.21 1018.54 1018.84 1019.11 1019.36 1019.58 1019.79 1020.00 1020.19 1020.37 1020.54 1020.70 1020.84 1020.95 1021.05 1021.12 1021.16 1021.16 1021.12 1021.03 1020.88 1020.68 1020.43 1020.13 1019.81 1019.48 1019.17
1011.79 1012.26 1012.74 1013.20 1013.64 1014.05 1014.43 1014.78 1015.12 1015.46 1015.80 1016.16 1016.53 1016.90 1017.27 1017.64 1017.99 1018.32 1018.62 1018.90 1019.16 1019.41 1019.63 1019.84 1020.04 1020.21 1020.38 1020.53 1020.66 1020.78 1020.89 1020.98 1021.05 1021.09 1021.10 1021.05 1020.95 1020.79 1020.56 1020.29 1019.97 1019.62 1019.28
1011.67 1012.15 1012.62 1013.07 1013.49 1013.88 1014.25 1014.61 1014.95 1015.29 1015.63 1015.98 1016.33 1016.69 1017.04 1017.38 1017.72 1018.03 1018.33 1018.62 1018.89 1019.14 1019.38 1019.59 1019.79 1019.97 1020.13 1020.27 1020.39 1020.51 1020.61 1020.70 1020.79 1020.85 1020.89 1020.88 1020.82 1020.71 1020.53 1020.29 1020.00 1019.67 1019.31
1011.48 1011.98 1012.45 1012.88 1013.29 1013.67 1014.04 1014.39 1014.74 1015.08 1015.43 1015.77 1016.12 1016.45 1016.78 1017.10 1017.41 1017.70 1017.98 1018.26 1018.53 1018.78 1019.02 1019.24 1019.45 1019.62 1019.77 1019.89 1020.00 1020.09 1020.18 1020.26 1020.33 1020.40 1020.45 1020.47 1020.45 1020.39 1020.26 1020.08 1019.84 1019.55 1019.22
1011.21 1011.73 1012.21 1012.64 1013.04 1013.41 1013.78 1014.13 1014.48 1014.84 1015.19 1015.54 1015.88 1016.20 1016.51 1016.80 1017.07 1017.34 1017.60 1017.85 1018.10 1018.35 1018.58 1018.80 1019.00 1019.17 1019.31 1019.41 1019.49 1019.56 1019.61 1019.66 1019.71 1019.76 1019.81 1019.84 1019.86 1019.84 1019.77 1019.66 1019.49 1019.27 1018.99
1010.89 1011.43 1011.91 1012.34 1012.74 1013.12 1013.48 1013.84 1014.21 1014.57 1014.94 1015.29 1015.63 1015.94 1016.23 1016.50 1016.74 1016.97 1017.20 1017.42 1017.65 1017.88 1018.10 1018.31 1018.50 1018.66 1018.78 1018.87 1018.93 1018.96 1018.97 1018.99 1019.00 1019.02 1019.05 1019.09 1019.12 1019.13 1019.12 1019.07 1018.98 1018.83 1018.62
1010.52 1011.09 1011.58 1012.02 1012.42 1012.79 1013.16 1013.54 1013.92 1014.30 1014.68 1015.04 1015.38 1015.69 1015.96 1016.21 1016.42 1016.62 1016.82 1017.01 1017.21 1017.42 1017.63 1017.83 1018.00 1018.15 1018.26 1018.34 1018.37 1018.37 1018.36 1018.33 1018.30 1018.29 1018.29 1018.31 1018.34 1018.37 1018.40 1018.40 1018.37 1018.28 1018.15
1010.16 1010.73 1011.24 1011.68 1012.09 1012.47 1012.85 1013.23 1013.62 1014.02 1014.41 1014.78 1015.13 1015.43 1015.70 1015.92 1016.12 1016.30 1016.47 1016.63 1016.81 1017.00 1017.19 1017.37 1017.54 1017.69 1017.79 1017.86 1017.88 1017.86 1017.82 1017.76 1017.70 1017.65 1017.62 1017.61 1017.63 1017.65 1017.69 1017.72 1017.72 1017.69 1017.60
1009.81 1010.39 1010.90 1011.35 1011.76 1012.15 1012.54 1012.93 1013.33 1013.73 1014.13 1014.51 1014.85 1015.16 1015.42 1015.64 1015.82 1015.98 1016.13 1016.28 1016.44 1016.61 1016.79 1016.97 1017.14 1017.28 1017.39 1017.45 1017.47 1017.45 1017.39 1017.31 1017.23 1017.15 1017.08 1017.04 1017.02 1017.03 1017.04 1017.07 1017.08 1017.07 1017.01
1009.46 1010.04 1010.56 1011.02 1011.44 1011.84 1012.23 1012.63 1013.03 1013.43 1013.83 1014.20 1014.54 1014.84 1015.09 1015.30 1015.48 1015.63 1015.78 1015.92 1016.07 1016.23 1016.41 1016.58 1016.75 1016.89 1017.01 1017.07 1017.10 1017.08 1017.03 1016.94 1016.84 1016.74 1016.65 1016.57 1016.51 1016.48 1016.46 1016.46 1016.45 1016.43 1016.38
1009.10 1009.68 1010.20 1010.67 1011.11 1011.52 1011.92 1012.31 1012.71 1013.10 1013.48 1013.84 1014.16 1014.45 1014.69 1014.89 1015.07 1015.22 1015.36 1015.50 1015.65 1015.81 1015.98 1016.15 1016.32 1016.46 1016.58 1016.66 1016.70 1016.69 1016.64 1016.56 1016.46 1016.35 1016.23 1016.13 1016.04 1015.97 1015.91 1015.86 1015.82 1015.77 1015.70
1008.70 1009.28 1009.81 1010.29 1010.74 1011.17 1011.57 1011.96 1012.34 1012.71 1013.06 1013.39 1013.69 1013.95 1014.18 1014.37 1014.54 1014.70 1014.84 1014.99 1015.14 1015.30 1015.46 1015.63 1015.79 1015.93 1016.05 1016.13 1016.17 1016.18 1016.14 1016.08 1015.99 1015.88 1015.77 1015.65 1015.53 1015.43 1015.34 1015.26 1015.18 1015.09 1015.00
1008.23 1008.81 1009.35 1009.86 1010.33 1010.77 1011.18 1011.56 1011.92 1012.26 1012.58 1012.86 1013.12 1013.35 1013.56 1013.74 1013.91 1014.06 1014.21 1014.36 1014.51 1014.67 1014.83 1014.98 1015.13 1015.25 1015.36 1015.44 1015.48 1015.50 1015.48 1015.43 1015.36 1015.28 1015.18 1015.07 1014.96 1014.85 1014.74 1014.64 1014.54 1014.44 1014.33
1007.67 1008.26 1008.83 1009.36 1009.86 1010.32 1010.74 1011.11 1011.45 1011.75 1012.02 1012.27 1012.48 1012.67 1012.85 1013.02 1013.18 1013.33 1013.49 1013.65 1013.80 1013.95 1014.10 1014.23 1014.35 1014.46 1014.54 1014.60 1014.64 1014.66 1014.66 1014.64 1014.60 1014.55 1014.49 1014.41 1014.33 1014.25 1014.16 1014.06 1013.96 1013.86 1013.75
1007.06 1007.66 1008.25 1008.82 1009.35 1009.83 1010.25 1010.63 1010.94 1011.21 1011.45 1011.64 1011.82 1011.98 1012.13 1012.28 1012.44 1012.60 1012.76 1012.92 1013.07 1013.22 1013.35 1013.46 1013.55 1013.63 1013.68 1013.72 1013.75 1013.77 1013.79 1013.79 1013.80 1013.80 1013.79 1013.77 1013.74 1013.70 1013.66 1013.60 1013.53 1013.45 1013.36
1006.44 1007.05 1007.67 1008.26 1008.82 1009.33 1009.77 1010.14 1010.45 1010.70 1010.89 1011.06 1011.20 1011.34 1011.48 1011.63 1011.78 1011.95 1012.12 1012.29 1012.45 1012.59 1012.70 1012.80 1012.86 1012.91 1012.94 1012.96 1012.97 1012.99 1013.02 1013.06 1013.11 1013.16 1013.21 1013.27 1013.31 1013.34 1013.35 1013.34 1013.32 1013.28 1013.22
1005.89 1006.50 1007.14 1007.76 1008.35 1008.88 1009.33 1009.72 1010.02 1010.26 1010.44 1010.59 1010.72 1010.85 1010.99 1011.14 1011.31 1011.50 1011.69 1011.87 1012.04 1012.18 1012.29 1012.37 1012.42 1012.44 1012.45 1012.45 1012.46 1012.48 1012.53 1012.60 1012.69 1012.80 1012.92 1013.04 1013.15 1013.24 1013.32 1013.37 1013.39 1013.39 1013.36
1005.47 1006.09 1006.73 1007.37 1007.98 1008.53 1009.01 1009.40 1009.72 1009.97 1010.16 1010.31 1010.45 1010.59 1010.75 1010.92 1011.12 1011.33 1011.55 1011.76 1011.94 1012.10 1012.21 1012.28 1012.32 1012.33 1012.33 1012.33 1012.34 1012.37 1012.43 1012.53 1012.66 1012.82 1012.99 1013.16 1013.33 1013.47 1013.60 1013.69 1013.74 1013.76 1013.74
1005.27 1005.87 1006.51 1007.16 1007.78 1008.35 1008.85 1009.27 1009.60 1009.88 1010.09 1010.28 1010.45 1010.62 1010.81 1011.02 1011.26 1011.51 1011.75 1011.99 1012.20 1012.37 1012.49 1012.57 1012.61 1012.62 1012.62 1012.62 1012.64 1012.68 1012.77 1012.89 1013.05 1013.23 1013.43 1013.64 1013.83 1014.00 1014.14 1014.24 1014.30 1014.31 1014.28
1005.32 1005.90 1006.53 1007.17 1007.80 1008.38 1008.90 1009.35 1009.72 1010.02 1010.28 1010.51 1010.73 1010.95 1011.19 1011.44 1011.72 1012.00 1012.28 1012.54 1012.77 1012.96 1013.10 1013.19 1013.24 1013.26 1013.27 1013.28 1013.31 1013.37 1013.47 1013.60 1013.77 1013.97 1014.17 1014.38 1014.56 1014.72 1014.84 1014.91 1014.93 1014.91 1014.84
1005.64 1006.20 1006.81 1007.44 1008.07 1008.65 1009.19 1009.66 1010.07 1010.42 1010.73 1011.01 1011.28 1011.55 1011.84 1012.14 1012.45 1012.76 1013.07 1013.35 1013.59 1013.78 1013.93 1014.03 1014.09 1014.12 1014.14 1014.16 1014.21 1014.28 1014.38 1014.52 1014.68 1014.86 1015.04 1015.21 1015.36 1015.46 1015.52 1015.53 1015.49 1015.41 1015.28
1006.21 1006.74 1007.33 1007.95 1008.57 1009.16 1009.70 1010.20 1010.64 1011.03 1011.39 1011.72 1012.04 1012.36 1012.68 1013.01 1013.35 1013.67 1013.98 1014.26 1014.50 1014.68 1014.83 1014.92 1014.98 1015.02 1015.05 1015.08 1015.13 1015.21 1015.31 1015.43 1015.57 1015.71 1015.85 1015.96 1016.03 1016.06 1016.04 1015.96 1015.84 1015.67 1015.47
1006.99 1007.50 1008.07 1008.67 1009.27 1009.85 1010.41 1010.92 1011.38 1011.81 1012.20 1012.57 1012.92 1013.27 1013.62 1013.96 1014.29 1014.61 1014.90 1015.15 1015.36 1015.53 1015.65 1015.73 1015.78 1015.81 1015.84 1015.87 1015.91 1015.98 1016.06 1016.16 1016.26 1016.35 1016.42 1016.45 1016.44 1016.38 1016.27 1016.10 1015.89 1015.65 1015.36
1007.92 1008.42 1008.97 1009.54 1010.12 1010.69 1011.24 1011.75 1012.22 1012.66 1013.07 1013.46 1013.83 1014.18 1014.53 1014.86 1015.17 1015.45 1015.70 1015.91 1016.08 1016.21 1016.29 1016.34 1016.36 1016.37 1016.39 1016.40 1016.43 1016.48 1016.53 1016.59 1016.64 1016.67 1016.67 1016.62 1016.53 1016.37 1016.17 1015.93 1015.64 1015.33 1014.99
Thickness
5655 5653 5653 5652 5651 5650 5648 5647 5646 5646 5645 5644 5642 5642 5642 5642 5641 5641 5640 5640 5639 5639 5639 5638 5638 5637 5636 5635 5634 5633 5631 5629 5627 5627 5627 5628 5628 5628 5628 5628 5628 5628 5628
5650 5649 5648 5647 5646 5645 5644 5643 5642 5641 5641 5640 5639 5638 5638 5637 5637 5637 5636 5636 5635 5634 5634 5634 5633 5633 5632 5631 5629 5628 5627 5626 5624 5622 5622 5622 5622 5623 5623 5623 5623 5623 5622
5645 5644 5642 5641 5640 5639 5639 5638 5638 5637 5636 5635 5635 5634 5633 5633 5633 5633 5632 5632 5631 5630 5630 5629 5629 5628 5627 5626 5625 5624 5622 5622 5620 5618 5616 5616 5616 5616 5616 5616 5617 5616 5617
5639 5638 5636 5635 5635 5634 5634 5633 5633 5632 5631 5630 5630 5629 5629 5628 5628 5628 5627 5626 5626 5626 5625 5625 5625 5624 5623 5622 5621 5620 5618 5616 5614 5612 5610 5609 5609 5609 5609 5609 5609 5610 5610
5633 5632 5631 5630 5630 5629 5627 5627 5627 5626 5626 5625 5624 5623 5623 5622 5622 5621 5621 5621 5620 5619 5619 5619 5620 5620 5620 5619 5618 5615 5614 5611 5609 5606 5605 5604 5603 5602 5603 5603 5603 5603 5604
5627 5626 5626 5625 5623 5622 5621 5620 5619 5619 5618 5617 5616 5616 5616 5617 5617 5616 5616 5614 5614 5613 5613 5613 5614 5614 5614 5614 5613 5612 5611 5608 5604 5602 5600 5599 5600 5599 5599 5598 5597 5597 5597
5622 5621 5620 5619 5616 5615 5614 5613 5611 5610 5610 5609 5609 5608 5608 5609 5610 5610 5610 5608 5607 5606 5606 5606 5607 5608 5607 5606 5606 5606 5605 5604 5603 5600 5598 5597 5597 5597 5595 5593 5592 5592 5593
5616 5615 5614 5612 5610 5608 5607 5606 5604 5603 5602 5601 5601 5601 5601 5602 5603 5603 5602 5601 5600 5600 5600 5600 5600 5600 5601 5600 5599 5598 5597 5597 5596 5595 5595 5595 5595 5594 5593 5592 5590 5587 5586
5609 5608 5607 5606 5604 5602 5600 5599 5598 5597 5595 5595 5594 5594 5594 5595 5596 5596 5596 5594 5593 5593 5593 5594 5593 5593 5595 5595 5592 5590 5589 5589 5590 5590 5590 5589 5590 5589 5588 5585 5582 5581 5580
5603 5602 5601 5600 5598 5596 5594 5593 5591 5590 5589 5588 5588 5588 5588 5588 5589 5589 5589 5587 5586 5586 5585 5585 5586 5587 5588 5588 5586 5584 5582 5583 5582 5582 5581 5582 5582 5582 5582 5581 5579 5576 5575
5597 5596 5593 5592 5591 5590 5588 5586 5584 5583 5581 5580 5580 5579 5579 5580 5581 5581 5581 5580 5579 5578 5578 5577 5578 5579 5580 5580 5579 5578 5578 5577 5575 5573 5573 5573 5573 5574 5574 5574 5575 5574 5572
5591 5588 5586 5584 5583 5582 5580 5578 5576 5575 5573 5572 5571 5570 5570 5571 5572 5573 5573 5573 5573 5571 5571 5571 5572 5572 5572 5571 5571 5571 5571 5569 5567 5565 5564 5565 5565 5566 5567 5567 5568 5568 5568
5583 5581 5578 5576 5574 5573 5571 5569 5567 5565 5564 5563 5562 5562 5562 5562 5563 5564 5565 5565 5565 5564 5564 5565 5564 5564 5564 5563 5564 5563 5562 5560 5559 5558 5558 5558 5560 5560 5560 5559 5560 5560 5560
5575 5572 5570 5568 5566 5564 5563 5561 5559 5556 5555 5555 5554 5553 5553 5553 5553 5554 5554 5555 5556 5555 5555 5555 5556 5555 5555 5555 5555 5554 5554 5553 5553 5552 5552 5552 5552 5552 5551 5551 5551 5551 5550
5567 5565 5563 5561 5558 5555 5554 5552 5551 5550 5549 5547 5546 5545 5544 5544 5545 5546 5545 5545 5546 5546 5546 5545 5545 5544 5544 5544 5544 5544 5544 5544 5544 5544 5544 5544 5543 5543 5543 5543 5542 5542 5542
5559 5557 5555 5553 5549 5547 5544 5542 5542 5541 5541 5540 5539 5538 5537 5537 5538 5537 5537 5538 5538 5538 5536 5535 5534 5534 5534 5534 5534 5534 5535 5535 5535 5536 5536 5536 5536 5535 5535 5535 5534 5533 5534
5552 5550 5547 5544 5541 5538 5535 5533 5531 5531 5530 5530 5530 5529 5529 5528 5528 5528 5528 5528 5528 5527 5525 5525 5525 5525 5525 5525 5525 5525 5525 5526 5527 5527 5527 5527 5527 5527 5526 5526 5525 5525 5525
5544 5542 5539 5536 5533 5530 5527 5524 5522 5520 5518 5518 5519 5520 5520 5519 5519 5518 5518 5517 5515 5515 5515 5515 5515 5515 5515 5515 5514 5515 5515 5516 5516 5517 5518 5518 5518 5518 5517 5516 5516 5516 5516
5535 5532 5530 5527 5524 5521 5518 5515 5513 5511 5509 5508 5508 5509 5510 5509 5509 5508 5508 5506 5505 5505 5505 5505 5505 5505 5504 5504 5504 5505 5505 5505 5506 5506 5507 5508 5508 5508 5507 5507 5506 5506 5506
5527 5526 5522 5518 5515 5512 5509 5506 5504 5502 5500 5499 5499 5499 5499 5498 5497 5497 5496 5496 5495 5495 5495 5495 5495 5494 5494 5494 5494 5494 5494 5494 5494 5495 5496 5496 5497 5497 5497 5497 5496 5496 5495
5518 5516 5515 5511 5506 5504 5501 5498 5496 5493 5492 5491 5491 5492 5491 5489 5488 5487 5487 5486 5486 5486 5485 5485 5484 5484 5483 5483 5483 5483 5483 5483 5483 5483 5484 5485 5485 5485 5486 5486 5486 5485 5485
5510 5507 5504 5501 5498 5495 5492 5489 5487 5485 5484 5483 5483 5482 5482 5480 5479 5478 5478 5477 5477 5476 5476 5475 5474 5474 5474 5473 5473 5473 5473 5473 5474 5473 5474 5474 5474 5475 5474 5475 5475 5474 5474
5502 5498 5495 5492 5489 5487 5483 5480 5478 5476 5475 5474 5473 5473 5472 5471 5470 5470 5469 5469 5468 5466 5466 5465 5464 5464 5464 5464 5464 5464 5464 5464 5464 5464 5463 5463 5463 5464 5464 5464 5464 5464 5464
5492 5489 5486 5483 5479 5476 5474 5471 5470 5468 5467 5465 5464 5463 5463 5462 5461 5461 5460 5460 5458 5457 5456 5455 5455 5455 5455 5455 5454 5454 5455 5454 5454 5454 5453 5453 5453 5453 5453 5453 5453 5453 5453
5483 5479 5476 5473 5470 5467 5465 5463 5461 5460 5458 5457 5455 5454 5453 5452 5452 5452 5451 5450 5449 5448 5447 5446 5446 5445 5445 5445 5445 5445 5445 5445 5444 5443 5443 5442 5442 5442 5442 5442 5442 5442 5442
5473 5470 5466 5463 5461 5458 5456 5454 5452 5451 5449 5448 5446 5445 5443 5442 5442 5441 5440 5440 5439 5439 5438 5437 5436 5436 5436 5436 5435 5435 5435 5435 5434 5433 5432 5432 5431 5431 5431 5431 5431 5431 5431